MIDAS 4 DEB, 195

Orbit data source: Space-Track

MIDAS 4 DEB, 195 is space debris in LEO originally from a launch on Sat, 21 Oct 1961 UTC launched from the Air Force Western Test Range (AFWTR). Debris objects in space refer to the collection of defunct objects orbiting the Earth. Examples of debris include non-operational satellites, rocket bodies, and fragments generated from explosions, collisions, or faulty payload assembly.

Loading next visibility...
Identifier
195, 1961-028D
Orbit
LEO
Last TLE update
2 days ago
Origin
Manufacturer
Unknown
Mission
Spacecraft
Bus & Motor
Unknown
Mass
~10 kg wet, ~10 kg dry
Launch date (UTC)
1961-10-21 (64 years ago)
Launch vehicle
Unknown
Launch site
Air Force Western Test Range (AFWTR)
Object type
Payload
Rocket body
Debris
Shape & HBR
Unknown
Radar Cross Section
Medium (>0.1 m² and <1 m²)

Expand to show TLE details & history

TLE from 2 days ago
0 MIDAS 4 DEB
1 00195U 61028D   25185.30356006  .00000006  00000-0  43653-2 0  9995
2 00195  95.8567 131.5679 0129372  49.7802 311.4288  8.65621182 12923
Epoch: 2025-07-04T07:17Z
TLE epoch observation values (Epoch: 2025-07-04T07:17:07.589Z)
Latitude
-0.00002°
Longitude
99.72839°
Altitude
3,558.777 km
Speed
6.361 km/s
True Right ascension
08h 46m 16s
True Declination
0° 00' 00"
Sunlit
Object was in daylight at epoch
Visualization orbit readout
Latitude
-65.37594°
Longitude
112.96731°
Altitude
3,717.618 km
Speed
6.269 km/s
Apparent Right ascension
04h 12m 39s
Apparent Declination
-76° 27' 44"
Sunlit
Object is in daylight
Visualization observer readout
Local Sidereal Time
12:19:20
Azimuth
196.635° SSW
Elevation
-45.898°
Doppler factor
1
Orbital elements
Apogee altitude
3,768.927 km
Perigee altitude
3,509.731 km
Semi-major axis
10,017.466 km
Eccentricity
0.01294
Inclination
95.8567°
RAAN
131.5679°
Arg. of periapsis
49.7802°
True anomaly
Unknown
Mean anomaly
311.4288°
Eccentric anomaly
Unknown
Mean motion
2.16474 °/min
Orbital period
166.3 mins
BSTAR
0.0043653
Loading maneuver chart data...
Loading SW <> Apogee altitude chart data...
Loading historical data...
Loading historical data...
Loading historical data...
Loading historical data...
Loading historical data...
Loading historical data...
Loading historical data...

MIDAS 4 DEB Visibility forecast

Observer location: undefined°, undefined°

Span
Click to sort rows by Start time (UTC) header in descending order
Start Az.
Max El. time (UTC)
Max El. Az.
Max El.
End time (UTC)
End Az.
33 mins2025-07-06 07:13:49.609Z18.537° NNE2025-07-06 07:29:49.609Z84.529° E34.398°2025-07-06 07:46:49.609Z154.337° SSE
34 mins2025-07-06 09:57:49.609Z3.913° NNE2025-07-06 10:13:49.609Z295.811° NW40.426°2025-07-06 10:31:49.609Z219.875° SW
14 mins2025-07-06 12:44:49.609Z348.721° N2025-07-06 12:51:49.609Z323.833° NNW14.546°2025-07-06 12:58:49.609Z299.564° NW
24 mins2025-07-06 17:43:49.609Z96.525° ESE2025-07-06 17:55:49.609Z48.982° ENE25.084°2025-07-06 18:07:49.609Z2.998° NNE
34 mins2025-07-06 20:19:49.609Z168.542° S2025-07-06 20:35:49.609Z239.692° WSW44.929°2025-07-06 20:53:49.609Z350.63° N
22 mins2025-07-06 23:12:49.609Z248.046° W2025-07-06 23:22:49.609Z285.437° WNW18.516°2025-07-06 23:34:49.609Z329.801° NNW
|